STARLINK-1404, 45686

Orbit data source: Space-Track

STARLINK-1404, 45686 is a payload satellite owned by SpaceX/Seattle (US) in LEO that was launched on Thu, 04 Jun 2020 UTC via an FALCON 9 launch vehicle from the Air Force Eastern Test Range (AFETR). Payload-class satellites include a variety of spacecraft equipped with specific instruments for various scientific and technological missions. These include communications satellites like Starlink; space stations such as the ISS; scientific satellites like the Hubble; Earth observation satellites from companies like Planet Labs, Umbra, and HawkEye 360; GPS; miniature CubeSats for education and research; and military/defense satellites.

Loading next visibility...
Identifier
45686, 2020-035AF
Orbit
LEO
Last TLE update
3 hours ago
Origin
Manufacturer
SpaceX/Seattle
Mission
Operational Commercial Communications
Bus & Motor
STARLINK, Unknown motor
Mass
260 kg wet, ~248 kg dry
Launch date (UTC)
2020-06-04 (5 years ago)
Launch vehicle
FALCON 9
Launch site
Air Force Eastern Test Range (AFETR)
Object type
Payload
Rocket body
Debris
Shape & HBR
Box + 1 Pan, 8.86 m
Radar Cross Section
13.562 m², Large (>1 m²)

Expand to show TLE details & history

TLE from 3 hours ago
0 STARLINK-1404
1 45686U 20035AF  25186.85852332  .00000108  00000-0  26174-4 0  9990
2 45686  53.0554  84.6882 0001483  86.3097 273.8062 15.06384256281265
Epoch: 2025-07-05T20:36Z
TLE epoch observation values (Epoch: 2025-07-05T20:36:16.414Z)
Latitude
-0°
Longitude
-148.47073°
Altitude
548.071 km
Speed
7.589 km/s
True Right ascension
05h 38m 45s
True Declination
0° 00' 00"
Sunlit
Object was in daylight at epoch
Visualization orbit readout
Latitude
-38.32592°
Longitude
67.2847°
Altitude
560.563 km
Speed
7.58 km/s
Apparent Right ascension
21h 30m 14s
Apparent Declination
-41° 19' 50"
Sunlit
Object is in full shadow
Visualization observer readout
Local Sidereal Time
11:09:17
Azimuth
102.371° ESE
Elevation
-71.216°
Doppler factor
1
Orbital elements
Apogee altitude
548.557 km
Perigee altitude
546.503 km
Semi-major axis
6,925.667 km
Eccentricity
0.00015
Inclination
53.0554°
RAAN
84.6882°
Arg. of periapsis
86.3097°
True anomaly
Unknown
Mean anomaly
273.8062°
Eccentric anomaly
Unknown
Mean motion
3.76574 °/min
Orbital period
95.6 mins
BSTAR
0.000026174
Loading maneuver chart data...
Loading SW <> Apogee altitude chart data...

STARLINK-1404 Visibility forecast

Observer location: undefined°, undefined°

Span
Click to sort rows by Start time (UTC) header in descending order
Start Az.
Max El. time (UTC)
Max El. Az.
Max El.
End time (UTC)
End Az.
4 mins2025-07-06 00:10:58.314Z337.341° NNW2025-07-06 00:12:58.314Z7.24° NNE13.29°2025-07-06 00:14:58.314Z37.128° NE
6 mins2025-07-06 01:50:58.314Z334.679° NNW2025-07-06 01:53:58.314Z39.753° NE25.981°2025-07-06 01:56:58.314Z88.922° E
6 mins2025-07-06 03:30:58.314Z288.922° WNW2025-07-06 03:32:58.314Z237.733° WSW35.953°2025-07-06 03:36:58.314Z152.346° SSE
5 mins2025-07-06 19:03:58.314Z180.308° SSW2025-07-06 19:05:58.314Z135.021° SSE27.645°2025-07-06 19:08:58.314Z74.089° E
6 mins2025-07-06 20:42:58.314Z267.55° W2025-07-06 20:45:58.314Z344.9° N31.278°2025-07-06 20:48:58.314Z35.96° NE
|